Location: La Brionne
(46.1728°N, 1.7849°E)
Time: 17:42:36
(UTC+00:00)

Cosmos 1544 Rocket - Pass Details

Date: 27 October 2021
Orbit: 603 x 632 km, 82.5° (Epoch: 27 November)

Event Time Altitude Azimuth Distance (km) Brightness Sun altitude
Rises 05:37:05 0° 339° (NNW) 2,904 6.7 -9.2°
Reaches altitude 10° 05:39:39 10° 325° (NW) 1,987 5.8 -8.7°
Maximum altitude 05:43:09 24° 272° (W) 1,292 4.6 -8.2°
Drops below altitude 10° 05:46:36 10° 219° (SW) 1,960 5.9 -7.6°
Sets 05:49:08 0° 206° (SSW) 2,855 6.8 -7.1°
